| time (UTC) | temp C | wind direction | speed KPH | gust KPH | rain 1hr cm | rain 24hr cm | rain mn cm | humidity % | barometer mb |
| 20260504151020 | 20 | 84 | 3.2 | 16.1 | 0.00 | 0.00 | 0.00 | 42 | 1014.4 |
| 20260504150521 | 20 | 234 | 4.8 | 16.1 | 0.00 | 0.00 | 0.00 | 44 | 1014.4 |
| 20260504141020 | 18 | 271 | 3.2 | 14.5 | 0.00 | 0.00 | 0.00 | 48 | 1014.5 |
| 20260504140521 | 18 | 281 | 6.4 | 14.5 | 0.00 | 0.00 | 0.00 | 48 | 1014.7 |
| 20260504130521 | 15 | 0 | 1.6 | 6.4 | 0.00 | 0.00 | 0.00 | 57 | 1014.8 |
| 20260504110520 | 7 | 0 | 0.0 | 0.0 | 0.00 | 0.00 | 0.00 | 84 | 1015.7 |
| 20260504100521 | 7 | 0 | 0.0 | 0.0 | 0.00 | 0.00 | 0.00 | 80 | 1015.5 |
| 20260504081538 | 8 | 0 | 0.0 | 0.0 | 0.00 | 0.00 | 0.00 | 83 | 1015.9 |
| 20260504081024 | 8 | 0 | 0.0 | 0.0 | 0.00 | 0.00 | 0.00 | 83 | 1015.8 |
| 20260504080520 | 8 | 0 | 0.0 | 0.0 | 0.00 | 0.00 | 0.00 | 83 | 1015.8 |
| 20260504050524 | 7 | 0 | 0.0 | 0.0 | 0.00 | 0.00 | 0.00 | 82 | 1016.1 |
| 20260504045520 | 7 | 0 | 0.0 | 0.0 | 0.00 | 0.00 | 0.00 | 82 | 1016.0 |
| 20260504045020 | 7 | 0 | 0.0 | 0.0 | 0.00 | 0.00 | 0.00 | 81 | 1016.0 |
| 20260504044541 | 7 | 0 | 0.0 | 0.0 | 0.00 | 0.00 | 0.00 | 81 | 1015.9 |
| 20260504044020 | 7 | 0 | 0.0 | 0.0 | 0.00 | 0.00 | 0.00 | 81 | 1016.0 |
| 20260504043520 | 7 | 0 | 0.0 | 0.0 | 0.00 | 0.00 | 0.00 | 81 | 1016.0 |
| 20260504043039 | 7 | 0 | 0.0 | 0.0 | 0.00 | 0.00 | 0.00 | 81 | 1016.1 |
| 20260504042519 | 7 | 0 | 0.0 | 0.0 | 0.00 | 0.00 | 0.00 | 81 | 1016.0 |
| 20260504042022 | 7 | 0 | 0.0 | 0.0 | 0.00 | 0.00 | 0.00 | 81 | 1015.9 |
| 20260504041538 | 6 | 0 | 0.0 | 0.0 | 0.00 | 0.00 | 0.00 | 81 | 1015.8 |
| 20260504041020 | 6 | 0 | 0.0 | 0.0 | 0.00 | 0.00 | 0.00 | 81 | 1015.8 |
| 20260504040520 | 6 | 0 | 0.0 | 0.0 | 0.00 | 0.00 | 0.00 | 80 | 1015.7 |
| 20260504040058 | 6 | 0 | 0.0 | 0.0 | 0.00 | 0.00 | 0.00 | 80 | 1015.8 |
| 20260504035521 | 6 | 0 | 0.0 | 0.0 | 0.00 | 0.00 | 0.00 | 80 | 1015.9 |
| 20260504035020 | 6 | 0 | 0.0 | 0.0 | 0.00 | 0.00 | 0.00 | 80 | 1015.9 |
| 20260504034543 | 6 | 0 | 0.0 | 0.0 | 0.00 | 0.00 | 0.00 | 80 | 1016.0 |
| 20260504034021 | 6 | 0 | 0.0 | 0.0 | 0.00 | 0.00 | 0.00 | 80 | 1016.1 |
| 20260504033520 | 6 | 0 | 0.0 | 0.0 | 0.00 | 0.00 | 0.00 | 80 | 1016.1 |
| 20260504033039 | 6 | 0 | 0.0 | 0.0 | 0.00 | 0.00 | 0.00 | 80 | 1016.0 |
| 20260504032522 | 6 | 0 | 0.0 | 0.0 | 0.00 | 0.00 | 0.00 | 80 | 1016.0 |
| 20260504032020 | 6 | 0 | 0.0 | 0.0 | 0.00 | 0.00 | 0.00 | 79 | 1016.0 |
| 20260504031539 | 6 | 0 | 0.0 | 0.0 | 0.00 | 0.00 | 0.00 | 79 | 1015.9 |
| 20260504031020 | 6 | 0 | 0.0 | 0.0 | 0.00 | 0.00 | 0.00 | 79 | 1015.9 |
| 20260504030523 | 6 | 0 | 0.0 | 0.0 | 0.00 | 0.00 | 0.00 | 79 | 1015.9 |
| 20260504030039 | 6 | 0 | 0.0 | 0.0 | 0.00 | 0.00 | 0.00 | 78 | 1015.9 |
| 20260504025523 | 6 | 0 | 0.0 | 0.0 | 0.00 | 0.00 | 0.00 | 78 | 1016.0 |
| 20260504025020 | 7 | 0 | 0.0 | 0.0 | 0.00 | 0.00 | 0.00 | 78 | 1016.0 |
| 20260504024534 | 7 | 0 | 0.0 | 0.0 | 0.00 | 0.00 | 0.00 | 78 | 1015.9 |
| 20260504024023 | 7 | 0 | 0.0 | 0.0 | 0.00 | 0.00 | 0.00 | 78 | 1015.9 |
| 20260504023520 | 7 | 0 | 0.0 | 0.0 | 0.00 | 0.00 | 0.00 | 77 | 1015.9 |
| 20260504023050 | 7 | 0 | 0.0 | 0.0 | 0.00 | 0.00 | 0.00 | 77 | 1015.8 |
| 20260504022523 | 7 | 0 | 0.0 | 0.0 | 0.00 | 0.00 | 0.00 | 77 | 1015.8 |
| 20260504022020 | 7 | 0 | 0.0 | 0.0 | 0.00 | 0.00 | 0.00 | 77 | 1015.8 |
| 20260504021540 | 7 | 0 | 0.0 | 0.0 | 0.00 | 0.00 | 0.00 | 77 | 1015.7 |
| 20260504021021 | 7 | 0 | 0.0 | 0.0 | 0.00 | 0.00 | 0.00 | 76 | 1015.6 |
| 20260504020521 | 7 | 0 | 0.0 | 0.0 | 0.00 | 0.00 | 0.00 | 76 | 1015.6 |
| 20260504020038 | 7 | 0 | 0.0 | 0.0 | 0.00 | 0.00 | 0.00 | 76 | 1015.6 |
| 20260504015521 | 7 | 0 | 0.0 | 0.0 | 0.00 | 0.00 | 0.00 | 75 | 1015.6 |
| 20260504015021 | 7 | 0 | 0.0 | 0.0 | 0.00 | 0.00 | 0.00 | 75 | 1015.5 |
| 20260504014550 | 7 | 0 | 0.0 | 0.0 | 0.00 | 0.00 | 0.00 | 74 | 1015.4 |
| 20260504014019 | 8 | 0 | 0.0 | 0.0 | 0.00 | 0.00 | 0.00 | 74 | 1015.4 |
| 20260504013517 | 8 | 0 | 0.0 | 0.0 | 0.00 | 0.00 | 0.00 | 73 | 1015.3 |
| 20260504013038 | 8 | 0 | 0.0 | 0.0 | 0.00 | 0.00 | 0.00 | 72 | 1015.3 |
| 20260504012520 | 8 | 0 | 0.0 | 0.0 | 0.00 | 0.00 | 0.00 | 72 | 1015.2 |
| 20260504012020 | 8 | 0 | 0.0 | 0.0 | 0.00 | 0.00 | 0.00 | 71 | 1015.2 |
| 20260504011543 | 8 | 0 | 0.0 | 0.0 | 0.00 | 0.00 | 0.00 | 71 | 1015.0 |
| 20260504011021 | 8 | 0 | 0.0 | 0.0 | 0.00 | 0.00 | 0.00 | 70 | 1014.9 |
| 20260504010518 | 9 | 0 | 0.0 | 0.0 | 0.00 | 0.00 | 0.00 | 68 | 1014.9 |
| 20260504010044 | 9 | 0 | 0.0 | 0.0 | 0.00 | 0.00 | 0.00 | 67 | 1015.1 |
| 20260504005520 | 10 | 0 | 0.0 | 0.0 | 0.00 | 0.00 | 0.00 | 65 | 1014.9 |
| 20260504005018 | 10 | 0 | 0.0 | 0.0 | 0.00 | 0.00 | 0.00 | 64 | 1015.0 |
| 20260504004544 | 10 | 0 | 0.0 | 0.0 | 0.00 | 0.00 | 0.00 | 64 | 1014.9 |
| 20260504004020 | 10 | 0 | 0.0 | 0.0 | 0.00 | 0.00 | 0.00 | 62 | 1014.9 |
| 20260504003522 | 10 | 0 | 0.0 | 1.6 | 0.00 | 0.00 | 0.00 | 60 | 1014.8 |
| 20260504003038 | 11 | 0 | 0.0 | 1.6 | 0.00 | 0.00 | 0.00 | 59 | 1014.7 |
| 20260504002519 | 11 | 0 | 0.0 | 0.0 | 0.00 | 0.00 | 0.00 | 58 | 1014.8 |
| 20260504002018 | 11 | 0 | 0.0 | 0.0 | 0.00 | 0.00 | 0.00 | 57 | 1014.8 |
| 20260504001551 | 11 | 0 | 0.0 | 0.0 | 0.00 | 0.00 | 0.00 | 55 | 1014.8 |
| 20260504001021 | 12 | 0 | 0.0 | 0.0 | 0.00 | 0.00 | 0.00 | 54 | 1014.8 |
| 20260504000517 | 12 | 0 | 0.0 | 0.0 | 0.00 | 0.00 | 0.00 | 53 | 1014.8 |
| 20260504000052 | 12 | 0 | 0.0 | 0.0 | 0.00 | 0.00 | 0.00 | 53 | 1014.7 |
| 20260503235520 | 13 | 0 | 0.0 | 0.0 | 0.00 | 0.00 | 0.00 | 51 | 1014.7 |
| 20260503235024 | 13 | 0 | 0.0 | 0.0 | 0.00 | 0.00 | 0.00 | 49 | 1014.6 |
| 20260503234540 | 13 | 0 | 0.0 | 0.0 | 0.00 | 0.00 | 0.00 | 47 | 1014.6 |
| 20260503234020 | 14 | 0 | 0.0 | 0.0 | 0.00 | 0.00 | 0.00 | 47 | 1014.6 |
| 20260503233520 | 14 | 0 | 0.0 | 0.0 | 0.00 | 0.00 | 0.00 | 46 | 1014.6 |
| 20260503233042 | 15 | 0 | 0.0 | 3.2 | 0.00 | 0.00 | 0.00 | 45 | 1014.5 |
| 20260503232521 | 15 | 0 | 0.0 | 3.2 | 0.00 | 0.00 | 0.00 | 42 | 1014.5 |
| 20260503232021 | 15 | 0 | 0.0 | 6.4 | 0.00 | 0.00 | 0.00 | 41 | 1014.4 |
| 20260503231540 | 16 | 0 | 1.6 | 6.4 | 0.00 | 0.00 | 0.00 | 40 | 1014.4 |
| 20260503231021 | 16 | 0 | 0.0 | 1.6 | 0.00 | 0.00 | 0.00 | 36 | 1014.4 |
| 20260503230521 | 16 | 0 | 0.0 | 1.6 | 0.00 | 0.00 | 0.00 | 34 | 1014.3 |
| 20260503230038 | 16 | 0 | 0.0 | 6.4 | 0.00 | 0.00 | 0.00 | 35 | 1014.4 |
| 20260503225522 | 17 | 0 | 1.6 | 6.4 | 0.00 | 0.00 | 0.00 | 34 | 1014.3 |
| 20260503225021 | 17 | 273 | 1.6 | 6.4 | 0.00 | 0.00 | 0.00 | 32 | 1014.3 |
| 20260503224541 | 17 | 225 | 1.6 | 8.0 | 0.00 | 0.00 | 0.00 | 35 | 1014.3 |
| 20260503224021 | 17 | 232 | 1.6 | 9.7 | 0.00 | 0.00 | 0.00 | 33 | 1014.4 |
| 20260503223524 | 17 | 276 | 3.2 | 9.7 | 0.00 | 0.00 | 0.00 | 33 | 1014.4 |
| 20260503223044 | 17 | 0 | 1.6 | 9.7 | 0.00 | 0.00 | 0.00 | 33 | 1014.4 |
| 20260503222519 | 17 | 259 | 1.6 | 16.1 | 0.00 | 0.00 | 0.00 | 33 | 1014.5 |
| 20260503222020 | 17 | 259 | 8.0 | 16.1 | 0.00 | 0.00 | 0.00 | 30 | 1014.4 |
| 20260503221544 | 17 | 230 | 3.2 | 16.1 | 0.00 | 0.00 | 0.00 | 31 | 1014.4 |
| 20260503221021 | 17 | 191 | 6.4 | 17.7 | 0.00 | 0.00 | 0.00 | 29 | 1014.4 |
| 20260503220524 | 17 | 242 | 6.4 | 17.7 | 0.00 | 0.00 | 0.00 | 32 | 1014.6 |
| 20260503220038 | 17 | 181 | 8.0 | 16.1 | 0.00 | 0.00 | 0.00 | 30 | 1014.6 |
| 20260503215521 | 17 | 237 | 4.8 | 16.1 | 0.00 | 0.00 | 0.00 | 34 | 1014.6 |
| 20260503215020 | 17 | 300 | 1.6 | 12.9 | 0.00 | 0.00 | 0.00 | 32 | 1014.6 |
| 20260503214538 | 17 | 236 | 0.0 | 14.5 | 0.00 | 0.00 | 0.00 | 34 | 1014.4 |
| 20260503214021 | 17 | 237 | 3.2 | 17.7 | 0.00 | 0.00 | 0.00 | 30 | 1014.6 |
| 20260503213521 | 17 | 301 | 4.8 | 17.7 | 0.00 | 0.00 | 0.00 | 34 | 1014.7 |
| 20260503213045 | 17 | 259 | 4.8 | 17.7 | 0.00 | 0.00 | 0.00 | 30 | 1014.7 |
| 20260503212521 | 17 | 190 | 4.8 | 17.7 | 0.00 | 0.00 | 0.00 | 33 | 1014.7 |
| 20260503212025 | 17 | 257 | 8.0 | 17.7 | 0.00 | 0.00 | 0.00 | 31 | 1014.6 |
| 20260503211544 | 17 | 273 | 6.4 | 17.7 | 0.00 | 0.00 | 0.00 | 33 | 1014.6 |
| 20260503211025 | 17 | 232 | 4.8 | 16.1 | 0.00 | 0.00 | 0.00 | 30 | 1014.5 |
| 20260503210524 | 17 | 256 | 4.8 | 16.1 | 0.00 | 0.00 | 0.00 | 33 | 1014.6 |
| 20260503210039 | 17 | 200 | 6.4 | 17.7 | 0.00 | 0.00 | 0.00 | 34 | 1014.5 |
| 20260503205522 | 17 | 266 | 6.4 | 17.7 | 0.00 | 0.00 | 0.00 | 33 | 1014.5 |
| 20260503205021 | 17 | 247 | 4.8 | 14.5 | 0.00 | 0.00 | 0.00 | 33 | 1014.6 |
| 20260503204558 | 17 | 267 | 1.6 | 17.7 | 0.00 | 0.00 | 0.00 | 34 | 1014.7 |
| 20260503204023 | 17 | 222 | 6.4 | 17.7 | 0.00 | 0.00 | 0.00 | 35 | 1014.7 |
| 20260503203523 | 17 | 252 | 9.7 | 17.7 | 0.00 | 0.00 | 0.00 | 34 | 1014.9 |
| 20260503203039 | 17 | 260 | 9.7 | 17.7 | 0.00 | 0.00 | 0.00 | 34 | 1014.9 |
| 20260503202517 | 17 | 244 | 8.0 | 20.9 | 0.00 | 0.00 | 0.00 | 33 | 1014.9 |
| 20260503202020 | 17 | 340 | 4.8 | 20.9 | 0.00 | 0.00 | 0.00 | 34 | 1014.8 |
| 20260503201534 | 17 | 275 | 6.4 | 19.3 | 0.00 | 0.00 | 0.00 | 34 | 1015.0 |
| 20260503201017 | 17 | 227 | 3.2 | 12.9 | 0.00 | 0.00 | 0.00 | 34 | 1014.9 |
| 20260503200517 | 17 | 230 | 4.8 | 24.1 | 0.00 | 0.00 | 0.00 | 32 | 1015.1 |
| 20260503200035 | 17 | 270 | 1.6 | 24.1 | 0.00 | 0.00 | 0.00 | 37 | 1015.3 |
| 20260503195521 | 17 | 215 | 8.0 | 24.1 | 0.00 | 0.00 | 0.00 | 34 | 1015.4 |
| 20260503195022 | 17 | 65 | 4.8 | 17.7 | 0.00 | 0.00 | 0.00 | 35 | 1015.5 |
| 20260503194539 | 16 | 238 | 6.4 | 17.7 | 0.00 | 0.00 | 0.00 | 34 | 1015.6 |
| 20260503194020 | 16 | 181 | 3.2 | 9.7 | 0.00 | 0.00 | 0.00 | 35 | 1015.4 |
| 20260503193523 | 16 | 166 | 1.6 | 12.9 | 0.00 | 0.00 | 0.00 | 36 | 1015.7 |
| 20260503193043 | 16 | 45 | 4.8 | 22.5 | 0.00 | 0.00 | 0.00 | 39 | 1015.7 |
| 20260503192520 | 16 | 235 | 3.2 | 22.5 | 0.00 | 0.00 | 0.00 | 35 | 1015.7 |
| 20260503192019 | 16 | 239 | 6.4 | 19.3 | 0.00 | 0.00 | 0.00 | 40 | 1016.0 |
| 20260503191538 | 16 | 212 | 3.2 | 14.5 | 0.00 | 0.00 | 0.00 | 33 | 1015.9 |
| 20260503191023 | 16 | 191 | 6.4 | 19.3 | 0.00 | 0.00 | 0.00 | 35 | 1016.0 |
| 20260503190520 | 16 | 266 | 8.0 | 20.9 | 0.00 | 0.00 | 0.00 | 34 | 1016.2 |
| 20260503190039 | 16 | 313 | 3.2 | 20.9 | 0.00 | 0.00 | 0.00 | 36 | 1016.1 |
| 20260503185519 | 16 | 298 | 9.7 | 20.9 | 0.00 | 0.00 | 0.00 | 33 | 1016.3 |
| 20260503185019 | 16 | 209 | 4.8 | 16.1 | 0.00 | 0.00 | 0.00 | 39 | 1016.2 |
| 20260503184545 | 16 | 253 | 3.2 | 16.1 | 0.00 | 0.00 | 0.00 | 40 | 1016.2 |
| 20260503184022 | 16 | 267 | 8.0 | 16.1 | 0.00 | 0.00 | 0.00 | 36 | 1016.4 |
| 20260503183521 | 16 | 237 | 4.8 | 24.1 | 0.00 | 0.00 | 0.00 | 35 | 1016.3 |
| 20260503183053 | 16 | 207 | 1.6 | 24.1 | 0.00 | 0.00 | 0.00 | 37 | 1016.3 |
| 20260503182516 | 16 | 204 | 4.8 | 24.1 | 0.00 | 0.00 | 0.00 | 35 | 1016.5 |
| 20260503182021 | 16 | 205 | 4.8 | 17.7 | 0.00 | 0.00 | 0.00 | 38 | 1016.5 |
| 20260503181554 | 15 | 217 | 6.4 | 17.7 | 0.00 | 0.00 | 0.00 | 38 | 1016.5 |
| 20260503181020 | 16 | 167 | 4.8 | 14.5 | 0.00 | 0.00 | 0.00 | 38 | 1016.7 |
| 20260503180521 | 15 | 266 | 4.8 | 32.2 | 0.00 | 0.00 | 0.00 | 40 | 1016.7 |
| 20260503180041 | 16 | 240 | 1.6 | 32.2 | 0.00 | 0.00 | 0.00 | 41 | 1016.7 |
| 20260503175520 | 15 | 215 | 6.4 | 29.0 | 0.00 | 0.00 | 0.00 | 37 | 1016.7 |
| 20260503175020 | 15 | 218 | 11.3 | 29.0 | 0.00 | 0.00 | 0.00 | 40 | 1016.9 |
| 20260503174536 | 15 | 344 | 6.4 | 17.7 | 0.00 | 0.00 | 0.00 | 37 | 1016.8 |
| 20260503174019 | 14 | 273 | 6.4 | 17.7 | 0.00 | 0.00 | 0.00 | 39 | 1016.8 |
| 20260503173519 | 14 | 215 | 4.8 | 20.9 | 0.00 | 0.00 | 0.00 | 44 | 1016.9 |
| 20260503173034 | 15 | 243 | 8.0 | 20.9 | 0.00 | 0.00 | 0.00 | 40 | 1017.1 |
| 20260503172522 | 15 | 183 | 11.3 | 20.9 | 0.00 | 0.00 | 0.00 | 41 | 1017.1 |
| 20260503172020 | 14 | 253 | 8.0 | 16.1 | 0.00 | 0.00 | 0.00 | 43 | 1017.1 |
| 20260503171539 | 13 | 234 | 4.8 | 20.9 | 0.00 | 0.00 | 0.00 | 40 | 1017.1 |
| 20260503171020 | 13 | 169 | 4.8 | 20.9 | 0.00 | 0.00 | 0.00 | 42 | 1017.0 |
| 20260503170517 | 13 | 227 | 8.0 | 20.9 | 0.00 | 0.00 | 0.00 | 42 | 1017.2 |